EW7034 Weather Reports


time (UTC)temp
C
wind
direction
speed
KPH
gust
KPH
rain 1hr
cm
rain 24hr
cm
rain mn
cm
humidity
%
barometer
mb
20260505060008 7 0.0 0.0 0.00 0.00 0.00 87 1017.2
20260505054516 7 0.0 0.0 0.00 0.00 0.00 87 1017.1
20260505053023 7 0.0 0.0 0.00 0.00 0.00 87 1017.1
20260505051526 7 0.0 0.0 0.00 0.00 0.00 88 1017.2
20260505041522 7 0.0 0.0 0.00 0.00 0.00 87 1017.0
20260505040037 7 0.0 0.0 0.00 0.00 0.00 87 1017.1
20260505034535 7 0.0 0.0 0.00 0.00 0.00 87 1017.1
20260505033017 7 0.0 0.0 0.00 0.00 0.00 88 1017.1
20260505031524 7 0.0 0.0 0.00 0.00 0.00 87 1017.3
20260505030022 7 0.0 0.0 0.00 0.00 0.00 88 1017.2
20260505024525 7 0.0 0.0 0.00 0.00 0.00 88 1017.2
20260505023001 6 0.0 0.0 0.00 0.00 0.00 89 1017.2
20260505021501 6 0.0 0.0 0.00 0.00 0.00 90 1017.2
20260505020007 6 0.0 0.0 0.00 0.00 0.00 90 1017.3
20260505014504 6 0.0 0.0 0.00 0.00 0.00 90 1017.4
20260505013009 5 0.0 0.0 0.00 0.00 0.00 90 1017.5
20260505011510 5 0.0 0.0 0.00 0.00 0.00 91 1017.5
20260505010010 5 0.0 0.0 0.00 0.00 0.00 91 1017.6
20260505004507 5 0.0 0.0 0.00 0.00 0.00 93 1017.6
20260505003008 4 0.0 0.0 0.00 0.00 0.00 92 1017.6
20260505001512 4 0.0 0.0 0.00 0.00 0.00 92 1017.7
20260505000014 4 0.0 0.0 0.00 0.00 0.00 91 1017.8
20260504234513 4 0.0 0.0 0.00 0.00 0.00 92 1017.8
20260504233004 4 0.0 0.0 0.00 0.00 0.00 92 1017.9
20260504231509 5 0.0 0.0 0.00 0.00 0.00 91 1017.9
20260504230012 5 0.0 0.0 0.00 0.00 0.00 90 1017.8
20260504224517 5 0.0 0.0 0.00 0.00 0.00 90 1018.0
20260504223014 5 0.0 0.0 0.00 0.00 0.00 90 1017.9
20260504221509 6 0.0 0.0 0.00 0.00 0.00 90 1018.0
20260504220028 6 0.0 0.0 0.00 0.00 0.00 90 1018.0
20260504214514 6 0.0 0.0 0.00 0.00 0.00 89 1018.0
20260504213016 7 0.0 0.0 0.00 0.00 0.00 89 1017.9
20260504211516 8 0.0 0.0 0.00 0.00 0.00 88 1017.8
20260504210008 9 0.0 0.0 0.00 0.00 0.00 89 1017.9
20260504204514 9 0.0 0.0 0.00 0.00 0.00 90 1017.9
20260504203017 9 0.0 0.0 0.00 0.00 0.00 89 1017.9
20260504201516 10 0.0 0.0 0.00 0.00 0.00 88 1017.8
20260504200018 10 0.0 0.0 0.00 0.00 0.00 87 1017.7
20260504194509 10 0.0 0.0 0.00 0.00 0.00 86 1017.6
20260504193015 10 0.0 0.0 0.00 0.00 0.00 86 1017.5
20260504191520 10 0.0 0.0 0.00 0.00 0.00 85 1017.5
20260504190016 11 0.0 0.0 0.00 0.00 0.00 84 1017.5
20260504184516 11 0.0 0.0 0.00 0.00 0.00 84 1017.2
20260504183012 11 0.0 0.0 0.00 0.00 0.00 83 1017.2
20260504181519 12 0.0 0.0 0.00 0.00 0.00 81 1017.0
20260504180016 12 0.0 0.0 0.00 0.00 0.00 81 1017.0
20260504174518 12 0.0 0.0 0.00 0.00 0.00 82 1017.0
20260504173010 12 0.0 0.0 0.00 0.00 0.00 80 1017.1
20260504171515 12 0.0 0.0 0.00 0.00 0.00 80 1017.1
20260504081513 10 0.0 0.0 0.00 0.00 0.00 85 1016.7